CW3340 Weather Reports


Display with metric or nautical units.
time (UTC)temp
F
wind
direction
speed
MPH
gust
MPH
rain 1hr
in
rain 24hr
in
rain mn
in
humidity
%
barometer
mb
20260506131604 58 175 5.0 20.0 0.00 0.00 0.00 85 1010.4
20260506131104 58 176 10.0 16.0 0.00 0.00 0.00 85 1010.3
20260506130604 58 181 8.0 15.0 0.00 0.00 0.00 86 1010.4
20260506130105 58 172 6.0 15.0 0.00 0.00 0.00 86 1010.4
20260506125604 57 193 5.0 15.0 0.00 0.00 0.00 86 1010.3
20260506125106 57 165 8.0 16.0 0.00 0.00 0.00 86 1010.3
20260506124604 57 180 6.0 16.0 0.00 0.00 0.00 87 1010.3
20260506124104 57 172 7.0 16.0 0.00 0.00 0.00 86 1010.4
20260506123604 57 171 5.0 15.0 0.00 0.00 0.00 86 1010.5
20260506123105 58 183 5.0 15.0 0.00 0.00 0.00 86 1010.4
20260506122604 58 173 7.0 15.0 0.00 0.00 0.00 86 1010.5
20260506122104 58 179 4.0 14.0 0.00 0.00 0.00 86 1010.7
20260506121604 58 197 5.0 14.0 0.00 0.00 0.00 87 1010.7
20260506121104 58 170 9.0 14.0 0.00 0.00 0.00 87 1010.7
20260506120604 58 175 6.0 14.0 0.00 0.00 0.00 87 1010.7
20260506120105 58 182 5.0 12.0 0.00 0.00 0.00 88 1010.8
20260506115604 57 191 5.0 12.0 0.00 0.00 0.00 88 1010.9
20260506115104 57 184 3.0 12.0 0.00 0.00 0.00 88 1010.8
20260506114604 57 185 4.0 12.0 0.00 0.00 0.00 89 1010.8
20260506114104 57 187 2.0 12.0 0.00 0.00 0.00 89 1010.7
20260506113604 57 187 4.0 12.0 0.00 0.00 0.00 90 1010.7
20260506113104 57 184 3.0 12.0 0.00 0.00 0.00 90 1010.7
20260506112604 56 198 5.0 14.0 0.00 0.00 0.00 90 1010.6
20260506112104 56 176 7.0 14.0 0.00 0.00 0.00 91 1010.5
20260506111604 56 183 9.0 15.0 0.00 0.00 0.00 91 1010.5
20260506111105 55 173 5.0 15.0 0.00 0.00 0.00 91 1010.6
20260506110604 55 188 6.0 13.0 0.00 0.00 0.00 91 1010.6
20260506110105 55 180 6.0 13.0 0.00 0.00 0.00 91 1010.6
20260506105604 55 175 3.0 15.0 0.00 0.00 0.00 91 1010.7
20260506105104 55 179 5.0 15.0 0.00 0.00 0.00 92 1010.7
20260506104604 55 205 6.0 14.0 0.00 0.00 0.00 92 1010.6
20260506104104 55 205 5.0 13.0 0.00 0.00 0.00 91 1010.6
20260506103604 55 191 5.0 17.0 0.00 0.00 0.00 92 1010.5
20260506103105 55 197 5.0 17.0 0.00 0.00 0.00 92 1010.5
20260506102604 55 158 3.0 13.0 0.00 0.00 0.00 91 1010.4
20260506102104 55 184 4.0 12.0 0.00 0.00 0.00 91 1010.4
20260506101604 54 182 3.0 13.0 0.00 0.00 0.00 91 1010.4
20260506101104 54 221 5.0 13.0 0.00 0.00 0.00 91 1010.4
20260506100604 54 176 5.0 13.0 0.00 0.00 0.00 91 1010.4
20260506100105 54 172 5.0 13.0 0.00 0.00 0.00 91 1010.4
20260506095604 54 182 5.0 14.0 0.00 0.00 0.00 91 1010.3
20260506095105 54 171 7.0 16.0 0.00 0.00 0.00 91 1010.3
20260506094604 54 219 6.0 16.0 0.00 0.00 0.00 91 1010.3
20260506094104 55 181 7.0 20.0 0.00 0.00 0.00 91 1010.4
20260506093604 55 183 9.0 20.0 0.00 0.00 0.00 91 1010.4
20260506093104 55 181 7.0 14.0 0.00 0.00 0.00 91 1010.4
20260506092604 55 184 4.0 16.0 0.00 0.00 0.00 91 1010.4
20260506092104 55 189 5.0 16.0 0.00 0.00 0.00 91 1010.5
20260506091604 55 191 4.0 14.0 0.00 0.00 0.00 90 1010.4
20260506091104 55 221 3.0 13.0 0.00 0.00 0.00 90 1010.4
20260506090604 55 164 3.0 12.0 0.00 0.00 0.00 90 1010.4
20260506090105 55 207 3.0 9.0 0.00 0.00 0.00 90 1010.6
20260506085604 55 173 6.0 14.0 0.00 0.00 0.00 90 1010.6
20260506085104 55 189 4.0 16.0 0.00 0.00 0.00 90 1010.6
20260506084604 55 176 9.0 16.0 0.00 0.00 0.00 90 1010.5
20260506084104 55 167 9.0 16.0 0.00 0.00 0.00 90 1010.6
20260506083604 55 188 5.0 15.0 0.00 0.00 0.00 90 1010.7
20260506083105 55 191 6.0 15.0 0.00 0.00 0.00 90 1010.7
20260506082604 55 167 8.0 13.0 0.00 0.00 0.00 90 1010.7
20260506082104 55 156 6.0 14.0 0.00 0.00 0.00 90 1010.8
20260506081604 55 191 5.0 14.0 0.00 0.00 0.00 89 1010.8
20260506081104 55 188 6.0 12.0 0.00 0.00 0.00 89 1010.8
20260506080604 55 203 6.0 12.0 0.00 0.00 0.00 89 1010.9
20260506080105 55 121 3.0 12.0 0.00 0.00 0.00 89 1010.9
20260506073104 55 170 5.0 14.0 0.00 0.00 0.00 89 1010.9
20260506072604 55 180 6.0 12.0 0.00 0.00 0.00 89 1010.9
20260506072104 55 152 5.0 14.0 0.00 0.00 0.00 89 1011.0
20260506071604 55 180 7.0 14.0 0.00 0.00 0.00 89 1011.0
20260506071104 55 187 7.0 14.0 0.00 0.00 0.00 89 1011.0
20260506070604 55 170 4.0 16.0 0.00 0.00 0.00 88 1011.0
20260506070105 55 164 5.0 18.0 0.00 0.00 0.00 88 1011.0
20260506062104 55 173 5.0 15.0 0.00 0.00 0.00 88 1010.9
20260506061604 55 156 5.0 17.0 0.00 0.00 0.00 88 1010.9
20260506061104 55 204 9.0 17.0 0.00 0.00 0.00 88 1011.0
20260506060604 55 193 6.0 16.0 0.00 0.00 0.00 87 1011.0
20260506060105 55 173 3.0 16.0 0.00 0.00 0.00 87 1010.9
20260506051105 56 188 9.0 18.0 0.00 0.00 0.00 86 1011.3
20260506050604 56 172 9.0 18.0 0.00 0.00 0.00 86 1011.3
20260506050105 56 184 8.0 18.0 0.00 0.00 0.00 85 1011.3
20260506045104 56 177 6.0 15.0 0.00 0.00 0.00 85 1011.4
20260506044604 56 188 7.0 16.0 0.00 0.00 0.00 85 1011.3
20260506044104 56 185 6.0 21.0 0.00 0.00 0.00 85 1011.3
20260506043604 57 179 7.0 21.0 0.00 0.00 0.00 85 1011.4
20260506043105 57 177 8.0 18.0 0.00 0.00 0.00 84 1011.4
20260506042604 57 190 8.0 17.0 0.00 0.00 0.00 84 1011.4
20260506042104 57 176 8.0 22.0 0.00 0.00 0.00 84 1011.3
20260506041604 57 93 9.0 24.0 0.00 0.00 0.00 84 1011.2
20260506041105 57 202 10.0 24.0 0.00 0.00 0.00 84 1011.2
20260506040604 57 179 6.0 23.0 0.00 0.00 0.00 84 1011.2
20260506040105 57 178 8.0 23.0 0.00 0.00 0.00 84 1011.3
20260506035604 57 190 10.0 23.0 0.00 0.00 0.00 83 1011.3
20260506035104 57 189 10.0 21.0 0.00 0.00 0.00 83 1011.2
20260506034604 57 173 6.0 20.0 0.00 0.00 0.00 83 1011.2
20260506034104 57 178 9.0 20.0 0.00 0.00 0.00 83 1011.2
20260506033604 57 182 9.0 21.0 0.00 0.00 0.00 83 1011.1
20260506033104 58 177 9.0 22.0 0.00 0.00 0.00 83 1011.1
20260506032604 58 180 8.0 22.0 0.00 0.00 0.00 83 1011.0
20260506032104 58 187 10.0 20.0 0.00 0.00 0.00 83 1011.1
20260506031604 58 172 11.0 24.0 0.00 0.00 0.00 82 1011.1
20260506031104 58 176 13.0 24.0 0.00 0.00 0.00 82 1011.1
20260506030604 58 190 7.0 21.0 0.00 0.00 0.00 82 1011.0
20260506030105 58 155 7.0 21.0 0.00 0.00 0.00 82 1011.1
20260506025604 58 197 7.0 18.0 0.00 0.00 0.00 82 1011.1
20260506025104 58 203 7.0 20.0 0.00 0.00 0.00 82 1011.0
20260506024604 58 191 7.0 23.0 0.00 0.00 0.00 82 1011.0
20260506024104 58 200 12.0 23.0 0.00 0.00 0.00 82 1010.9
20260506023604 58 195 12.0 20.0 0.00 0.00 0.00 82 1011.0
20260506023105 58 190 9.0 20.0 0.00 0.00 0.00 82 1011.1
20260506022604 58 167 9.0 18.0 0.00 0.00 0.00 81 1011.0
20260506022104 58 183 7.0 20.0 0.00 0.00 0.00 81 1011.0
20260506021604 58 183 8.0 20.0 0.00 0.00 0.00 81 1011.1
20260506021104 58 187 9.0 22.0 0.00 0.00 0.00 81 1011.1
20260506020604 58 168 7.0 23.0 0.00 0.00 0.00 80 1011.1
20260506020105 58 178 7.0 23.0 0.00 0.00 0.00 80 1011.0
20260506015604 58 185 9.0 21.0 0.00 0.00 0.00 80 1011.0
20260506015104 58 172 9.0 20.0 0.00 0.00 0.00 80 1011.1
20260506014604 58 132 7.0 17.0 0.00 0.00 0.00 80 1011.0
20260506014104 58 193 9.0 20.0 0.00 0.00 0.00 80 1010.9
20260506013604 58 175 9.0 20.0 0.00 0.00 0.00 80 1010.9
20260506013104 59 178 7.0 20.0 0.00 0.00 0.00 79 1010.9
20260506012604 59 191 12.0 21.0 0.00 0.00 0.00 79 1010.9
20260506012104 59 176 10.0 21.0 0.00 0.00 0.00 79 1010.9
20260506011604 59 178 12.0 21.0 0.00 0.00 0.00 79 1010.8
20260506011104 59 183 10.0 20.0 0.00 0.00 0.00 78 1010.8
20260506010604 59 177 10.0 25.0 0.00 0.00 0.00 78 1010.8
20260506010105 59 174 12.0 25.0 0.00 0.00 0.00 77 1010.7
20260506005604 59 174 12.0 21.0 0.00 0.00 0.00 77 1010.7
20260506005104 60 188 9.0 20.0 0.00 0.00 0.00 77 1010.6
20260506004604 60 201 8.0 22.0 0.00 0.00 0.00 77 1010.6
20260506004104 60 177 10.0 25.0 0.00 0.00 0.00 76 1010.6
20260506003604 60 168 7.0 25.0 0.00 0.00 0.00 76 1010.5
20260506003104 60 178 14.0 25.0 0.00 0.00 0.00 76 1010.5
20260506002604 60 197 9.0 24.0 0.00 0.00 0.00 76 1010.3
20260506002104 61 180 14.0 26.0 0.00 0.00 0.00 76 1010.3
20260506001604 61 174 10.0 26.0 0.00 0.00 0.00 75 1010.2
20260506001104 61 240 12.0 26.0 0.00 0.00 0.00 75 1010.2
20260506000604 61 170 14.0 28.0 0.00 0.00 0.00 74 1010.2
20260506000105 61 174 12.0 28.0 0.00 0.00 0.00 73 1010.0
20260505235604 62 206 12.0 26.0 0.00 0.00 0.00 72 1009.9
20260505235104 62 145 10.0 25.0 0.00 0.00 0.00 72 1009.8
20260505234604 63 166 12.0 26.0 0.00 0.00 0.00 72 1009.7
20260505234104 63 159 11.0 26.0 0.00 0.00 0.00 72 1009.6
20260505233604 63 178 10.0 24.0 0.00 0.00 0.00 72 1009.3
20260505233106 62 212 13.0 24.0 0.00 0.00 0.00 73 1009.3
20260505232604 62 164 13.0 24.0 0.00 0.00 0.00 73 1009.3
20260505232104 62 168 17.0 26.0 0.00 0.00 0.00 73 1009.2
20260505231604 62 199 13.0 26.0 0.00 0.00 0.00 73 1009.1
20260505231106 62 190 12.0 24.0 0.00 0.00 0.00 73 1009.0
20260505230604 62 185 12.0 24.0 0.00 0.00 0.00 72 1009.0
20260505230105 62 177 13.0 26.0 0.00 0.00 0.00 72 1009.0
20260505225604 62 200 15.0 26.0 0.00 0.00 0.00 72 1008.9
20260505225104 63 209 10.0 24.0 0.00 0.00 0.00 71 1009.0
20260505224604 63 183 12.0 24.0 0.00 0.00 0.00 71 1008.9
20260505224104 63 203 10.0 26.0 0.00 0.00 0.00 71 1009.0
20260505223604 63 168 9.0 26.0 0.00 0.00 0.00 71 1009.0
20260505223105 63 188 13.0 26.0 0.00 0.00 0.00 70 1008.9
20260505222604 63 200 9.0 26.0 0.00 0.00 0.00 71 1008.7
20260505222104 63 219 10.0 25.0 0.00 0.00 0.00 70 1008.7
20260505221604 64 196 13.0 26.0 0.00 0.00 0.00 70 1008.8
20260505221104 64 236 11.0 26.0 0.00 0.00 0.00 69 1008.8
20260505220604 64 178 11.0 25.0 0.00 0.00 0.00 69 1008.8
20260505220105 64 216 10.0 24.0 0.00 0.00 0.00 69 1008.7
20260505215604 64 189 14.0 25.0 0.00 0.00 0.00 69 1008.7
20260505215104 64 189 11.0 25.0 0.00 0.00 0.00 69 1008.6
20260505214604 64 165 9.0 23.0 0.00 0.00 0.00 69 1008.7
20260505214104 64 197 9.0 28.0 0.00 0.00 0.00 69 1008.7
20260505213604 64 168 10.0 28.0 0.00 0.00 0.00 70 1008.7
20260505213104 64 221 12.0 28.0 0.00 0.00 0.00 69 1008.6
20260505212604 64 178 14.0 24.0 0.00 0.00 0.00 69 1008.5
20260505212104 65 247 12.0 24.0 0.00 0.00 0.00 69 1008.5
20260505211604 65 193 12.0 26.0 0.00 0.00 0.00 68 1008.4
20260505211104 64 187 13.0 32.0 0.00 0.00 0.00 69 1008.3
20260505210604 64 172 14.0 32.0 0.00 0.00 0.00 69 1008.2
20260505210105 64 197 10.0 25.0 0.00 0.00 0.00 69 1008.3
20260505205604 64 188 13.0 25.0 0.00 0.00 0.00 70 1008.4
20260505205104 63 177 12.0 26.0 0.00 0.00 0.00 70 1008.5
20260505204604 63 157 14.0 26.0 0.00 0.00 0.00 70 1008.5
20260505204104 64 176 13.0 26.0 0.00 0.00 0.00 70 1008.5
20260505203604 64 200 12.0 23.0 0.00 0.00 0.00 70 1008.5
20260505203104 64 215 12.0 32.0 0.00 0.00 0.00 70 1008.5
20260505202604 64 282 9.0 32.0 0.00 0.00 0.00 69 1008.6
20260505202104 64 193 11.0 23.0 0.00 0.00 0.00 70 1008.6
20260505201604 64 182 13.0 24.0 0.00 0.00 0.00 69 1008.6
20260505201104 64 180 11.0 24.0 0.00 0.00 0.00 70 1008.7
20260505200604 64 147 10.0 24.0 0.00 0.00 0.00 70 1008.7
20260505200105 64 177 14.0 26.0 0.00 0.00 0.00 70 1008.7
20260505195604 64 179 16.0 26.0 0.00 0.00 0.00 69 1008.9
20260505195104 65 193 16.0 35.0 0.00 0.00 0.00 69 1008.8
20260505194604 65 187 12.0 35.0 0.00 0.00 0.00 69 1008.9
20260505194104 65 163 13.0 28.0 0.00 0.00 0.00 68 1008.9
20260505193604 65 194 9.0 22.0 0.00 0.00 0.00 69 1009.1
20260505193104 65 186 12.0 22.0 0.00 0.00 0.00 69 1009.1
20260505192604 65 170 13.0 22.0 0.00 0.00 0.00 68 1009.2
20260505192104 66 178 13.0 22.0 0.00 0.00 0.00 67 1009.3
20260505191604 66 208 7.0 26.0 0.00 0.00 0.00 68 1009.5
20260505191104 66 195 12.0 26.0 0.00 0.00 0.00 67 1009.5
20260505190604 67 192 10.0 23.0 0.00 0.00 0.00 68 1009.7
20260505190105 66 187 13.0 24.0 0.00 0.00 0.00 68 1009.9
20260505185604 66 203 12.0 25.0 0.00 0.00 0.00 69 1009.8
20260505185104 65 172 12.0 25.0 0.00 0.00 0.00 69 1010.0
20260505184604 66 175 7.0 22.0 0.00 0.00 0.00 68 1010.0
20260505184104 65 187 12.0 23.0 0.00 0.00 0.00 68 1010.0
20260505183604 66 187 9.0 23.0 0.00 0.00 0.00 67 1010.1
20260505183104 67 182 13.0 22.0 0.00 0.00 0.00 68 1010.2
20260505182604 66 158 7.0 18.0 0.00 0.00 0.00 70 1010.2
20260505182104 66 176 10.0 18.0 0.00 0.00 0.00 68 1010.2
20260505181604 66 189 6.0 18.0 0.00 0.00 0.00 70 1010.3
20260505181104 65 183 10.0 17.0 0.00 0.00 0.00 70 1010.3
20260505180604 65 184 10.0 17.0 0.00 0.00 0.00 70 1010.5
20260505180105 65 166 7.0 17.0 0.00 0.00 0.00 70 1010.5
20260505175604 65 171 7.0 16.0 0.00 0.00 0.00 71 1010.5
20260505175104 64 186 5.0 16.0 0.00 0.00 0.00 72 1010.6
20260505174604 65 179 11.0 16.0 0.00 0.00 0.00 70 1010.7
20260505174104 66 170 8.0 13.0 0.00 0.00 0.00 70 1010.8
20260505173604 66 173 6.0 14.0 0.00 0.00 0.00 71 1010.7
20260505173104 65 173 6.0 15.0 0.00 0.00 0.00 72 1010.9
20260505172604 65 182 4.0 15.0 0.00 0.00 0.00 71 1010.9
20260505172104 65 184 6.0 15.0 0.00 0.00 0.00 72 1010.8
20260505171604 64 188 7.0 15.0 0.00 0.00 0.00 71 1010.9
20260505171104 65 180 6.0 15.0 0.00 0.00 0.00 71 1010.9
20260505170604 65 186 7.0 16.0 0.00 0.00 0.00 71 1011.0
20260505170105 64 168 7.0 17.0 0.00 0.00 0.00 71 1010.9
20260505165604 64 191 10.0 17.0 0.00 0.00 0.00 71 1011.1
20260505165105 64 190 10.0 17.0 0.00 0.00 0.00 72 1011.1
20260505164604 64 194 6.0 17.0 0.00 0.00 0.00 72 1011.1
20260505164104 64 172 7.0 20.0 0.00 0.00 0.00 71 1011.2
20260505163604 65 190 9.0 20.0 0.00 0.00 0.00 69 1011.1
20260505163104 66 178 8.0 16.0 0.00 0.00 0.00 69 1011.2
20260505162604 66 187 9.0 16.0 0.00 0.00 0.00 69 1011.2
20260505162104 67 169 8.0 13.0 0.00 0.00 0.00 68 1011.2
20260505161604 68 180 8.0 12.0 0.00 0.00 0.00 68 1011.2
20260505161104 68 189 6.0 14.0 0.00 0.00 0.00 67 1011.3
20260505160604 68 176 7.0 14.0 0.00 0.00 0.00 67 1011.3
20260505160105 68 171 6.0 14.0 0.00 0.00 0.00 68 1011.4
20260505153104 66 168 7.0 14.0 0.00 0.00 0.00 71 1011.7
20260505152604 66 167 9.0 14.0 0.00 0.00 0.00 71 1011.7
20260505152104 65 167 7.0 12.0 0.00 0.00 0.00 72 1011.8
20260505151604 65 160 6.0 10.0 0.00 0.00 0.00 72 1011.7
20260505151104 65 168 6.0 10.0 0.00 0.00 0.00 73 1011.8
20260505150604 65 171 5.0 12.0 0.00 0.00 0.00 72 1011.9
20260505150105 64 199 2.0 12.0 0.00 0.00 0.00 74 1012.0
20260505140604 64 163 8.0 12.0 0.00 0.00 0.00 73 1011.9
20260505140105 64 187 7.0 12.0 0.00 0.00 0.00 73 1011.8